Vorticity
17 20 21 21 19 15 8 4 3 2 3 4 4 3 1 1 4 5 4 2 3 5 8 8 8 8 8 8 6 5 4 3 3 4 5 7 7 6 6 5 4 4
17 18 20 22 24 24 21 18 15 14 12 10 9 9 7 4 2 4 6 6 5 5 5 7 8 8 8 9 9 8 7 6 5 4 4 5 6 7 7 7 6 6
11 13 14 16 18 20 22 23 22 21 19 17 16 15 16 16 14 11 9 11 13 13 11 8 7 8 9 9 10 9 8 8 8 7 5 4 5 5 7 8 8 8
6 6 7 9 10 11 13 16 19 21 21 21 19 17 15 15 16 16 14 11 11 13 16 15 10 6 5 7 8 10 9 8 8 8 9 7 5 4 4 6 8 9
5 6 6 6 7 7 8 8 10 13 16 19 21 21 19 16 13 12 14 14 13 11 13 17 18 16 13 11 10 10 10 9 8 8 9 10 9 7 5 4 4 5
6 6 6 6 6 7 7 7 8 8 9 11 14 17 19 21 19 15 13 13 15 15 12 11 13 16 19 19 17 15 14 14 12 9 8 8 9 10 9 7 6 5
5 5 5 5 5 6 6 6 6 7 7 7 8 9 11 14 18 19 18 14 12 13 15 13 12 11 12 14 15 16 15 16 17 16 14 11 9 9 9 9 8 8
5 5 4 4 5 6 6 6 5 5 5 5 6 6 7 8 10 13 16 17 15 12 12 13 13 14 14 14 13 13 11 10 12 15 17 18 16 13 12 10 9 8
10 9 7 6 6 6 6 7 6 6 5 5 4 4 5 6 7 8 9 12 14 14 13 12 11 12 14 17 18 18 16 13 8 6 7 10 14 15 15 15 14 12
17 15 14 13 11 9 8 8 8 8 8 8 7 6 5 5 6 7 8 8 9 10 11 12 12 11 11 12 15 18 22 23 21 16 10 6 5 6 9 11 13 14
24 23 21 20 19 16 14 13 12 11 11 11 11 10 8 7 6 6 6 7 8 8 8 8 8 10 10 9 9 11 16 21 25 26 25 21 15 10 6 5 5 6
22 23 24 24 24 23 21 20 18 17 16 15 14 14 13 11 10 10 8 7 7 7 7 7 7 7 8 9 9 10 10 11 15 19 23 26 27 26 22 17 12 8
13 14 15 16 18 20 21 21 20 20 20 19 18 18 18 17 15 14 13 12 11 10 9 7 7 7 7 7 7 8 8 8 9 11 13 17 21 24 27 29 28 25
8 8 8 8 9 11 12 14 15 15 16 17 17 17 17 18 17 16 16 15 14 13 12 11 9 8 7 6 5 6 7 7 8 8 9 10 12 14 17 20 24 26
14 12 12 11 11 11 11 11 12 12 12 12 12 13 13 13 14 14 15 15 15 15 15 14 13 12 10 8 6 5 5 6 7 8 8 8 9 9 10 12 13 16
26 25 24 22 21 20 19 18 17 16 14 13 12 11 11 11 11 10 10 11 12 13 14 15 15 15 14 13 11 8 6 5 5 6 7 9 9 10 10 10 11 11
28 29 30 30 28 27 27 27 26 25 23 21 18 16 14 13 12 12 12 11 9 9 10 11 11 12 13 14 14 13 11 8 7 6 6 9 10 11 11 9 8 7
22 22 22 23 24 25 25 26 26 28 29 28 27 25 23 21 18 16 16 16 16 15 13 11 10 9 9 10 11 13 13 11 9 7 7 9 10 10 8 7 7 7
17 17 17 17 18 18 19 21 21 23 25 27 28 28 29 29 27 25 22 21 21 21 21 21 19 16 14 12 11 11 11 11 10 9 9 9 10 10 9 9 9 10
15 16 16 17 18 19 19 20 20 21 22 23 24 24 25 27 29 30 30 28 26 24 25 25 25 24 23 21 19 17 15 14 13 11 10 10 10 10 11 11 10 10
17 19 20 20 21 22 22 23 23 24 24 25 25 24 23 23 24 26 28 30 30 28 27 26 26 26 26 25 25 23 22 21 19 16 14 14 13 12 11 11 10 10
20 20 20 20 21 22 23 24 25 25 26 26 27 27 26 24 23 24 25 27 28 28 26 25 24 24 23 22 22 22 22 22 21 19 18 16 15 15 14 12 11 10
20 20 20 20 21 21 22 23 24 24 25 26 27 28 27 26 24 23 23 24 24 23 22 21 20 19 19 19 19 19 20 19 19 19 19 17 16 15 14 14 13 11
20 21 21 21 20 20 20 21 23 23 24 25 27 27 27 26 25 22 18 17 18 18 18 18 17 16 16 17 17 17 18 17 18 19 18 17 17 15 13 13 13 13
23 22 22 21 20 19 19 21 22 22 23 25 27 27 26 24 23 21 16 12 13 15 16 17 17 16 16 16 16 17 17 16 17 18 17 17 16 15 14 13 12 14
20 18 18 18 18 18 19 22 24 23 22 24 26 26 23 20 20 20 18 14 12 13 15 16 17 17 17 16 17 18 18 17 16 17 17 16 15 14 15 15 15 16
Height
5520 5520 5519 5518 5517 5516 5515 5514 5514 5513 5513 5513 5514 5514 5513 5512 5512 5512 5512 5512 5513 5514 5514 5514 5514 5515 5516 5516 5517 5518 5519 5520 5521 5521 5522 5523 5525 5525 5526 5527 5527 5527
5509 5508 5507 5506 5505 5504 5503 5502 5501 5501 5500 5500 5500 5500 5500 5500 5500 5500 5500 5501 5501 5501 5502 5502 5503 5503 5504 5505 5505 5507 5508 5509 5510 5510 5510 5512 5513 5514 5515 5516 5516 5517
5498 5496 5495 5494 5493 5492 5491 5490 5490 5489 5488 5487 5487 5487 5486 5486 5487 5486 5487 5489 5489 5489 5489 5490 5490 5491 5492 5493 5494 5495 5497 5498 5498 5499 5499 5500 5502 5503 5504 5505 5505 5507
5486 5485 5484 5482 5481 5480 5479 5478 5478 5477 5477 5476 5475 5474 5474 5474 5473 5472 5473 5474 5475 5476 5476 5477 5478 5479 5480 5481 5482 5483 5485 5486 5487 5487 5488 5489 5490 5491 5493 5493 5494 5496
5474 5473 5472 5470 5469 5468 5467 5466 5465 5465 5465 5464 5463 5462 5462 5462 5462 5460 5460 5461 5462 5462 5463 5464 5466 5467 5467 5468 5469 5471 5472 5473 5474 5475 5476 5478 5479 5480 5481 5482 5483 5484
5462 5460 5458 5458 5458 5456 5454 5454 5453 5453 5452 5452 5451 5450 5450 5450 5450 5449 5449 5449 5449 5449 5450 5451 5453 5454 5455 5456 5457 5458 5459 5461 5462 5463 5464 5466 5467 5468 5469 5470 5471 5473
5448 5447 5445 5444 5445 5443 5440 5440 5440 5440 5439 5439 5439 5438 5438 5438 5438 5438 5438 5438 5437 5437 5437 5439 5440 5442 5443 5444 5445 5446 5447 5448 5449 5450 5452 5454 5455 5456 5457 5457 5459 5461
5433 5433 5432 5430 5431 5429 5427 5426 5427 5426 5426 5426 5426 5426 5426 5426 5426 5426 5426 5426 5426 5425 5425 5426 5427 5429 5429 5431 5433 5434 5435 5436 5438 5439 5440 5442 5443 5444 5445 5445 5447 5449
5417 5417 5417 5416 5416 5415 5413 5411 5412 5412 5411 5412 5413 5413 5413 5413 5413 5413 5413 5413 5413 5413 5414 5415 5415 5416 5417 5418 5420 5421 5423 5424 5426 5427 5429 5430 5431 5432 5433 5434 5435 5437
5402 5400 5400 5400 5400 5400 5399 5396 5396 5397 5397 5397 5398 5399 5399 5399 5400 5400 5401 5401 5401 5401 5402 5403 5404 5404 5405 5406 5406 5408 5410 5412 5414 5415 5416 5418 5419 5420 5421 5422 5423 5425
5386 5384 5384 5384 5384 5384 5383 5381 5380 5381 5382 5382 5383 5384 5384 5385 5385 5386 5388 5389 5389 5389 5390 5390 5392 5393 5393 5394 5395 5396 5398 5399 5400 5402 5403 5405 5406 5408 5409 5410 5411 5413
5371 5370 5369 5368 5367 5367 5367 5366 5366 5366 5366 5367 5368 5369 5370 5370 5370 5372 5374 5375 5376 5377 5377 5378 5379 5380 5381 5382 5384 5385 5386 5387 5388 5390 5391 5393 5394 5395 5397 5398 5399 5400
5358 5356 5355 5353 5352 5351 5351 5351 5351 5351 5351 5351 5352 5353 5355 5356 5356 5357 5359 5361 5362 5363 5365 5366 5367 5367 5369 5371 5372 5373 5373 5375 5377 5378 5380 5381 5382 5384 5385 5386 5387 5388
5344 5342 5341 5340 5338 5336 5336 5336 5336 5336 5336 5336 5337 5338 5340 5341 5343 5344 5345 5347 5348 5349 5352 5353 5354 5356 5357 5358 5359 5360 5362 5364 5365 5366 5368 5370 5371 5372 5373 5374 5375 5376
5329 5328 5327 5326 5324 5321 5320 5320 5320 5321 5321 5322 5322 5323 5325 5326 5328 5330 5332 5333 5334 5336 5338 5340 5341 5343 5344 5346 5347 5348 5350 5352 5353 5355 5357 5358 5360 5361 5362 5363 5364 5364
5314 5313 5311 5311 5309 5306 5304 5304 5305 5305 5306 5307 5308 5308 5309 5311 5314 5316 5318 5319 5321 5322 5324 5326 5328 5330 5332 5333 5335 5336 5338 5340 5342 5344 5346 5348 5350 5351 5351 5351 5351 5351
5300 5298 5297 5295 5294 5292 5290 5289 5289 5289 5290 5292 5293 5294 5295 5296 5299 5301 5303 5305 5307 5309 5310 5313 5315 5317 5319 5321 5322 5324 5326 5328 5331 5334 5336 5338 5339 5339 5338 5338 5338 5339
5288 5287 5285 5282 5280 5278 5277 5275 5275 5275 5275 5276 5278 5279 5280 5281 5284 5286 5288 5290 5292 5294 5297 5299 5302 5304 5306 5309 5311 5312 5314 5317 5321 5323 5325 5326 5326 5325 5325 5326 5328 5331
5275 5275 5274 5271 5269 5267 5265 5264 5262 5262 5262 5263 5263 5264 5266 5267 5269 5272 5274 5276 5278 5280 5282 5285 5288 5291 5294 5296 5299 5301 5302 5307 5312 5313 5312 5313 5313 5312 5314 5316 5319 5320
5263 5263 5262 5260 5258 5256 5254 5253 5251 5250 5251 5251 5251 5251 5252 5254 5256 5258 5260 5262 5265 5267 5269 5272 5275 5278 5281 5284 5287 5289 5291 5297 5301 5300 5300 5301 5302 5302 5304 5306 5307 5308
5252 5251 5249 5247 5246 5245 5243 5242 5240 5239 5239 5239 5240 5240 5241 5242 5244 5247 5249 5251 5253 5255 5258 5260 5264 5267 5270 5273 5275 5277 5282 5286 5288 5288 5289 5291 5291 5292 5293 5295 5296 5297
5243 5241 5238 5236 5235 5234 5233 5232 5230 5229 5229 5229 5229 5230 5231 5233 5235 5236 5239 5241 5243 5245 5248 5251 5254 5257 5260 5263 5265 5268 5272 5275 5275 5277 5280 5281 5281 5282 5282 5284 5286 5287
5233 5231 5229 5227 5225 5224 5223 5222 5220 5220 5220 5220 5220 5221 5222 5224 5226 5228 5230 5232 5234 5237 5240 5243 5246 5249 5251 5254 5256 5260 5263 5264 5265 5268 5270 5271 5271 5271 5272 5274 5276 5277
5223 5222 5220 5218 5217 5215 5214 5213 5212 5211 5211 5212 5212 5213 5214 5216 5218 5220 5223 5225 5227 5230 5233 5235 5238 5241 5244 5246 5248 5251 5254 5256 5257 5259 5260 5260 5260 5261 5263 5266 5267 5268
5215 5213 5212 5210 5209 5208 5206 5205 5205 5204 5204 5204 5205 5206 5208 5209 5211 5214 5216 5219 5221 5223 5226 5228 5231 5234 5236 5238 5240 5243 5246 5248 5250 5251 5250 5250 5251 5253 5256 5258 5258 5259
5208 5206 5205 5203 5202 5201 5199 5198 5198 5197 5198 5198 5199 5201 5202 5204 5206 5208 5210 5213 5215 5217 5220 5222 5224 5227 5229 5231 5233 5235 5239 5242 5243 5242 5240 5241 5244 5246 5248 5250 5250 5250